This demonstration page uses our WeatherBlox Daily Observations layout. Learn more.

Left ArrowRight Arrow

36.19886, -115.1175

Hourly Observations for June 12, 2021

Temp ( °F °C ) Dew Point ( °F °C ) Humidity (%) Winds ( mph kmh ) Pressure ( in mb ) Visibility ( mi km ) Precip ( " mm )
12:53 am 00:53 Clear 76 24.4 22 -5.6 13 13 NNW 5 7 29.80 1009 10 16 N/A
1:53 am 01:53 Clear 77 25 20 -6.7 12 12 W 7 11 29.79 1009 10 16 N/A
2:53 am 02:53 Clear 75 23.9 14 -10 10 10 N N/A 29.78 1009 10 16 N/A
3:53 am 03:53 Clear 74 23.3 16 -8.9 11 11 WNW 3 6 29.78 1009 10 16 N/A
4:53 am 04:53 Clear 75 23.9 9 -12.8 8 8 NNW 7 11 29.78 1009 10 16 N/A
5:53 am 05:53 Sunny 76 24.4 7 -13.9 7 7 NW 8 13 29.80 1009 10 16 N/A
6:53 am 06:53 Sunny 79 26.1 11 -11.7 7 7 NW 8 13 29.81 1010 10 16 N/A
7:53 am 07:53 Sunny 84 28.9 17 -8.3 8 8 WNW 5 7 29.83 1010 10 16 N/A
8:53 am 08:53 Sunny 88 31.1 9 -12.8 5 5 NNW 7 11 29.84 1011 10 16 N/A
9:53 am 09:53 Sunny 91 32.8 9 -12.8 4 4 N N/A 29.83 1010 10 16 N/A
10:53 am 10:53 Sunny 93 33.9 6 -14.4 4 4 E 7 11 29.83 1010 10 16 N/A
11:53 am 11:53 Sunny 95 35 8 -13.3 4 4 VRB 6 9 29.82 1010 10 16 N/A
12:53 pm 12:53 Sunny 97 36.1 11 -11.7 4 4 ESE 7 11 29.80 1009 10 16 N/A
1:53 pm 13:53 Sunny 99 37.2 12 -11.1 4 4 VRB 3 6 29.78 1008 10 16 N/A
2:53 pm 14:53 Sunny 101 38.3 13 -10.6 4 4 VRB 3 6 29.76 1008 10 16 N/A
3:53 pm 15:53 Sunny 101 38.3 12 -11.1 4 4 SE 7 11 29.74 1007 10 16 N/A
4:53 pm 16:53 Sunny 103 39.4 13 -10.6 4 4 SE 8 13 29.71 1006 10 16 N/A
5:53 pm 17:53 Sunny 103 39.4 13 -10.6 4 4 E 7 11 29.68 1005 10 16 N/A
6:53 pm 18:53 Sunny 102 38.9 12 -11.1 4 4 SE 8 13 29.68 1005 10 16 N/A
7:53 pm 19:53 Sunny 99 37.2 13 -10.6 4 4 ESE 8 13 29.68 1005 10 16 N/A
8:53 pm 20:53 Clear 95 35 14 -10 5 5 E 3 6 29.69 1006 10 16 N/A
9:53 pm 21:53 Clear 92 33.3 20 -6.7 7 7 WNW 7 11 29.71 1006 10 16 N/A
10:53 pm 22:53 Clear 89 31.7 27 -2.8 11 11 WNW 6 9 29.72 1006 10 16 N/A
11:53 pm 23:53 Clear 84 28.9 23 -5 10 10 NNW 6 9 29.72 1006 10 16 N/A

Powered by AerisWeather